Date String (YYYY-MM-DD hh:mm:ss) UTC,Instrument flags,absolute air pressure of the measurement (hPa),sample flow rate (lpm),inlet stack bypass flow (lpm),air temperature of the measurement (°C),ambient temperature measured by the external sensor (°C),aerosol sample conditioner tube jacket temperature (°C),OPC LED temperature (°C),internal box temperature (°C),relative humidity of the measurement (%),span deviation,mass concentration of particles derived from Lorenz-Mie calculation of OPC scattering (μg/m³),mass concentration of particles derived from Lorenz-Mie calculation of OPC scattering (μg/m³),mass concentration of particles derived from Lorenz-Mie calculation of OPC scattering (μg/m³)
DateTimeUTC,F1_M11,P_M11,Q1_M11,Q2_M11,T1_M11,T2_M11,T3_M11,T4_M11,T5_M11,U1_M11,ZSPAN_M11,X2_M11,X0_M11,X1_M11
2024-04-25 06:00:00,SystemResetWarning,0824.5,4.99,000.00,026.2,025.6,000.0,034.5,028.1,021.1,0000.0,0005.31,0016.73,0004.17
2024-04-25 06:01:00,SystemResetWarning,0824.5,4.99,000.00,026.2,025.6,000.0,034.5,028.1,021.2,0000.0,0005.30,0016.66,0004.15
2024-04-25 06:02:00,SystemResetWarning,0824.5,4.99,000.00,026.3,025.6,000.0,034.5,028.1,021.2,0000.0,0005.21,0016.08,0004.11
2024-04-25 06:03:00,SystemResetWarning,0824.5,5.01,000.00,026.3,025.6,000.0,034.6,028.1,021.2,0000.0,0005.12,0014.65,0004.05
2024-04-25 06:04:00,SystemResetWarning,0824.5,5.00,000.00,026.3,025.6,000.0,034.6,028.1,021.2,0000.0,0004.99,0014.00,0003.95
2024-04-25 06:05:00,SystemResetWarning,0824.6,5.00,000.00,026.3,025.6,000.0,034.6,028.1,021.3,0000.0,0004.88,0014.70,0003.87
2024-04-25 06:06:00,SystemResetWarning,0824.7,4.99,000.00,026.3,025.6,000.0,034.6,028.2,021.4,0000.0,0004.75,0014.34,0003.77
2024-04-25 06:07:00,SystemResetWarning,0824.7,4.99,000.00,026.3,025.6,000.0,034.6,028.2,021.5,0000.0,0004.61,0012.70,0003.68
2024-04-25 06:08:00,SystemResetWarning,0824.7,5.00,000.00,026.4,025.7,000.0,034.7,028.2,021.6,0000.0,0004.50,0011.92,0003.61
2024-04-25 06:09:00,SystemResetWarning,0824.8,5.01,000.00,026.4,025.7,000.0,034.7,028.2,021.9,0000.0,0004.35,0011.30,0003.52
2024-04-25 06:10:00,SystemResetWarning,0824.8,5.00,000.00,026.4,025.7,000.0,034.7,028.2,022.0,0000.0,0004.24,0011.05,0003.44
2024-04-25 06:11:00,SystemResetWarning,0824.8,5.00,000.00,026.4,025.7,000.0,034.7,028.2,022.2,0000.0,0004.17,0011.16,0003.39
2024-04-25 06:12:00,SystemResetWarning,0824.7,5.01,000.00,026.4,025.7,000.0,034.7,028.3,022.2,0000.0,0004.12,0010.68,0003.34
2024-04-25 06:13:00,SystemResetWarning,0824.7,5.00,000.00,026.4,025.7,000.0,034.7,028.3,022.0,0000.0,0004.12,0010.53,0003.31
2024-04-25 06:14:00,SystemResetWarning,0824.7,5.00,000.00,026.4,025.8,000.0,034.8,028.3,021.8,0000.0,0004.17,0010.72,0003.29
2024-04-25 06:15:00,SystemResetWarning,0824.7,4.98,000.00,026.3,024.7,000.0,034.8,027.5,022.1,0000.0,0004.18,0011.07,0003.28
2024-04-25 06:16:00,SystemResetWarning,0824.5,5.01,000.00,025.8,022.6,000.0,034.8,026.3,022.7,0000.0,0004.19,0011.53,0003.27
2024-04-25 06:17:00,SystemResetWarning,0824.5,5.01,000.00,025.5,022.3,000.0,034.7,026.0,023.0,0000.0,0004.21,0010.69,0003.28
2024-04-25 06:18:00,SystemResetWarning,0824.5,4.99,000.00,025.3,022.6,000.0,034.5,026.2,023.4,0000.0,0004.28,0010.87,0003.28
2024-04-25 06:19:00,SystemResetWarning,0824.5,5.01,000.00,025.3,022.9,000.0,034.4,026.5,023.6,0000.0,0004.31,0011.07,0003.28
2024-04-25 06:20:00,SystemResetWarning,0824.5,5.01,000.00,025.3,023.3,000.0,034.3,026.8,023.8,0000.0,0004.38,0011.32,0003.29
2024-04-25 06:21:00,SystemResetWarning,0824.5,5.00,000.00,025.3,023.6,000.0,034.2,027.0,024.0,0000.0,0004.46,0012.53,0003.31
2024-04-25 06:22:00,SystemResetWarning,0824.4,5.00,000.00,025.4,023.8,000.0,034.2,027.1,024.2,0000.0,0004.51,0013.63,0003.33
2024-04-25 06:23:00,SystemResetWarning,0824.4,5.00,000.00,025.4,024.1,000.0,034.1,027.2,024.5,0000.0,0004.57,0014.38,0003.34
2024-04-25 06:24:00,SystemResetWarning,0824.4,4.99,000.00,025.5,024.3,000.0,034.1,027.3,024.5,0000.0,0004.60,0015.02,0003.37
2024-04-25 06:25:00,SystemResetWarning,0824.3,5.00,000.00,025.5,024.4,000.0,034.1,027.3,024.7,0000.0,0004.64,0015.81,0003.42
2024-04-25 06:26:00,SystemResetWarning,0824.3,5.00,000.00,025.5,024.5,000.0,034.1,027.4,024.8,0000.0,0004.72,0015.49,0003.47
2024-04-25 06:27:00,SystemResetWarning,0824.3,5.00,000.00,025.6,024.7,000.0,034.1,027.4,024.8,0000.0,0004.83,0015.18,0003.52
2024-04-25 06:28:00,SystemResetWarning,0824.3,5.00,000.00,025.6,024.8,000.0,034.1,027.5,025.0,0000.0,0004.94,0016.19,0003.57
2024-04-25 06:29:00,SystemResetWarning,0824.4,5.00,000.00,025.6,024.8,000.0,034.1,027.5,025.2,0000.0,0005.04,0016.81,0003.64
2024-04-25 06:30:00,SystemResetWarning,0824.4,5.00,000.00,025.7,024.9,000.0,034.1,027.6,025.2,0000.0,0005.17,0017.08,0003.70
2024-04-25 06:31:00,SystemResetWarning,0824.4,5.00,000.00,025.7,025.0,000.0,034.1,027.6,025.3,0000.0,0005.34,0017.96,0003.77
2024-04-25 06:32:00,SystemResetWarning,0824.4,4.99,000.00,025.7,025.0,000.0,034.1,027.6,025.2,0000.0,0005.47,0017.91,0003.84
2024-04-25 06:33:00,SystemResetWarning,0824.7,5.00,000.00,025.8,025.1,000.0,034.1,027.7,025.2,0000.0,0005.60,0017.49,0003.89
2024-04-25 06:34:00,SystemResetWarning,0824.7,4.99,000.00,025.8,025.1,000.0,034.1,027.7,025.1,0000.0,0005.73,0017.36,0003.93
2024-04-25 06:35:00,SystemResetWarning,0824.7,5.00,000.00,025.8,025.1,000.0,034.2,027.7,025.0,0000.0,0005.80,0017.54,0003.97
2024-04-25 06:36:00,SystemResetWarning,0824.7,5.00,000.00,025.9,025.2,000.0,034.2,027.7,025.2,0000.0,0005.93,0017.94,0004.01
2024-04-25 06:37:00,SystemResetWarning,0824.7,5.00,000.00,025.9,025.2,000.0,034.2,027.8,025.4,0000.0,0006.01,0019.43,0004.06
2024-04-25 06:38:00,SystemResetWarning,0824.6,5.02,000.00,025.9,025.2,000.0,034.2,027.8,025.5,0000.0,0006.15,0020.16,0004.13
2024-04-25 06:39:00,SystemResetWarning,0824.7,5.00,000.00,025.9,025.3,000.0,034.3,027.8,025.5,0000.0,0006.24,0020.26,0004.18
2024-04-25 06:40:00,SystemResetWarning,0824.7,4.99,000.00,026.0,025.3,000.0,034.3,027.9,025.6,0000.0,0006.34,0020.01,0004.24
2024-04-25 06:41:00,SystemResetWarning,0824.7,5.00,000.00,026.0,025.3,000.0,034.3,027.9,025.6,0000.0,0006.49,0020.79,0004.30
2024-04-25 06:42:00,SystemResetWarning,0824.7,4.99,000.00,026.0,025.4,000.0,034.3,027.9,025.6,0000.0,0006.59,0022.26,0004.35
2024-04-25 06:43:00,SystemResetWarning,0824.7,5.00,000.00,026.0,025.4,000.0,034.3,027.9,025.6,0000.0,0006.69,0024.65,0004.40
2024-04-25 06:44:00,SystemResetWarning,0824.7,5.00,000.00,026.0,025.4,000.0,034.4,027.9,025.6,0000.0,0006.80,0026.45,0004.47
2024-04-25 06:45:00,SystemResetWarning,0824.8,5.00,000.00,026.1,025.4,000.0,034.4,028.0,025.6,0000.0,0006.86,0027.56,0004.54
2024-04-25 06:46:00,SystemResetWarning,0824.7,5.00,000.00,026.1,025.5,000.0,034.4,028.0,025.7,0000.0,0006.93,0028.06,0004.62
2024-04-25 06:47:00,SystemResetWarning,0824.8,5.00,000.00,026.1,025.5,000.0,034.4,028.0,025.7,0000.0,0007.03,0028.15,0004.68
2024-04-25 06:48:00,SystemResetWarning,0824.8,5.00,000.00,026.1,025.5,000.0,034.4,028.0,025.7,0000.0,0007.17,0027.53,0004.74
2024-04-25 06:49:00,SystemResetWarning,0824.8,5.00,000.00,026.1,025.6,000.0,034.5,028.0,025.7,0000.0,0007.21,0027.93,0004.77
2024-04-25 06:50:00,SystemResetWarning,0824.7,5.00,000.00,026.2,025.6,000.0,034.5,028.1,025.7,0000.0,0007.27,0028.61,0004.81
2024-04-25 06:51:00,SystemResetWarning,0824.7,5.00,000.00,026.2,025.6,000.0,034.5,028.1,025.7,0000.0,0007.39,0029.71,0004.84
2024-04-25 06:52:00,SystemResetWarning,0824.8,5.00,000.00,026.2,025.6,000.0,034.5,028.1,025.7,0000.0,0007.40,0030.47,0004.88
2024-04-25 06:53:00,SystemResetWarning,0824.8,5.00,000.00,026.2,025.6,000.0,034.6,028.1,025.6,0000.0,0007.45,0029.46,0004.93
2024-04-25 06:54:00,SystemResetWarning,0824.8,5.00,000.00,026.2,025.7,000.0,034.6,028.1,025.6,0000.0,0007.46,0026.94,0004.97
2024-04-25 06:55:00,SystemResetWarning,0824.7,5.00,000.00,026.3,025.7,000.0,034.6,028.1,025.6,0000.0,0007.49,0025.11,0005.00
2024-04-25 06:56:00,SystemResetWarning,0824.7,5.00,000.00,026.3,025.7,000.0,034.6,028.1,025.6,0000.0,0007.59,0025.75,0005.03
2024-04-25 06:57:00,SystemResetWarning,0824.7,4.99,000.00,026.3,025.7,000.0,034.6,028.2,025.6,0000.0,0007.68,0025.85,0005.05
2024-04-25 06:58:00,SystemResetWarning,0824.8,5.00,000.00,026.3,025.7,000.0,034.7,028.2,025.7,0000.1,0007.69,0025.61,0005.09
2024-04-25 06:59:00,SystemResetWarning,0824.8,5.01,000.00,026.3,025.7,000.0,034.7,028.2,025.6,0001.4,0007.69,0025.97,0005.12
